This demonstration page uses our WeatherBlox Daily Observations layout. Learn more.

Hourly Observations for November 24, 2018

Temp ( °F °C ) Dew Point ( °F °C ) Humidity (%) Winds ( mph kmh ) Pressure ( in mb ) Visibility ( mi km ) Precip ( " mm )
12:15 am 00:15 Clear 36 2.2 29 -1.4 77 77 W 9 15 29.8 1009 10 16.09344 0 0
12:35 am 00:35 Clear 38 3.1 30 -1.3 73 73 WNW 9 15 29.74 1007 10 16.09344 0 0
12:55 am 00:55 Clear 36 2.1 29 -1.7 76 76 WNW 9 15 29.77 1008 10 16.09344 0 0
1:15 am 01:15 Clear 37 2.8 29 -1.6 73 73 WNW 10 17 29.77 1008 10 16.09344 0 0
1:35 am 01:35 Clear 37 2.5 29 -1.7 74 74 WNW 9 15 29.8 1009 10 16.09344 0 0
1:55 am 01:55 Clear 36 2 29 -1.9 76 76 WNW 7 11 29.77 1008 10 16.09344 0 0
2:15 am 02:15 Clear 36 2 29 -1.6 77 77 NW 8 13 29.77 1008 10 16.09344 0 0
2:35 am 02:35 Clear 35 1.5 29 -1.6 80 80 WNW 7 11 29.8 1009 10 16.09344 0 0
2:55 am 02:55 Clear 33 0.8 28 -2 82 82 WNW 7 11 29.77 1008 10 16.09344 0 0
3:15 am 03:15 Clear 33 0.6 28 -2 83 83 NW 7 11 29.77 1008 10 16.09344 0 0
3:35 am 03:35 Clear 33 0.3 29 -1.9 85 85 NW 8 13 29.77 1008 10 16.09344 0 0
3:55 am 03:55 Clear 32 0 28 -2.2 85 85 WNW 7 11 29.77 1008 10 16.09344 0 0
4:15 am 04:15 Clear 32 -0.1 28 -2.2 86 86 WNW 9 15 29.77 1008 10 16.09344 0 0
4:35 am 04:35 Clear 31 -0.8 28 -2.3 90 90 NW 6 9 29.8 1009 10 16.09344 0 0
4:55 am 04:55 Clear 32 0 29 -1.5 90 90 NW 6 9 29.77 1008 10 16.09344 0 0
5:15 am 05:15 Clear 31 -0.3 29 -1.8 90 90 NW 3 6 29.74 1007 10 16.09344 0 0
5:35 am 05:35 Clear 30 -0.9 28 -2.1 92 92 NW 3 6 29.77 1008 10 16.09344 0 0
5:55 am 05:55 Clear 31 -0.8 28 -2.1 91 91 W 6 9 29.77 1008 10 16.09344 0 0
6:15 am 06:15 Clear 31 -0.8 28 -2 92 92 W 5 7 29.77 1008 10 16.09344 0 0
6:35 am 06:35 Clear 31 -0.8 28 -2.2 90 90 W 6 9 29.8 1009 10 16.09344 0 0
6:55 am 06:55 Mostly Cloudy 30 -0.9 29 -1.8 94 94 W 7 11 29.8 1009 10 16.09344 0 0
7:15 am 07:15 Cloudy 32 0.1 31 -0.7 94 94 W 3 6 29.77 1008 10 16.09344 0 0
7:35 am 07:35 Cloudy 33 0.5 31 -0.6 92 92 WSW 3 6 29.74 1007 10 16.09344 0 0
7:55 am 07:55 Cloudy 33 0.5 30 -0.9 90 90 W 6 9 29.77 1008 10 16.09344 0 0
8:15 am 08:15 Partly Cloudy 33 0.5 31 -0.6 92 92 W 6 9 29.77 1008 10 16.09344 0 0
8:35 am 08:35 Mostly Cloudy 34 1 31 -0.6 89 89 W 7 11 29.77 1008 10 16.09344 0 0
8:55 am 08:55 Cloudy 35 1.5 32 -0.2 89 89 WNW 5 7 29.77 1008 10 16.09344 0 0
9:15 am 09:15 Cloudy 35 1.9 32 0 87 87 Calm 29.77 1008 10 16.09344 0 0
9:35 am 09:35 Cloudy 37 2.6 33 0.5 86 86 Calm 29.77 1008 10 16.09344 0 0
9:55 am 09:55 Cloudy 38 3.2 33 0.6 83 83 Calm 29.74 1007 10 16.09344 0 0
10:15 am 10:15 Cloudy 39 3.7 33 0.6 80 80 Calm 29.74 1007 10 16.09344 0 0
10:35 am 10:35 Cloudy 40 4.3 33 0.8 78 78 Calm 29.74 1007 10 16.09344 0 0
10:55 am 10:55 Cloudy 41 5 33 0.7 74 74 Calm 29.71 1006 10 16.09344 0 0
11:15 am 11:15 Cloudy 42 5.8 33 0.8 71 71 Calm 29.71 1006 10 16.09344 0 0
11:35 am 11:35 Cloudy 43 6.2 34 0.9 69 69 Calm 29.68 1005 10 16.09344 0 0
11:55 am 11:55 Cloudy 44 6.6 34 0.9 67 67 Calm 29.65 1004 10 16.09344 0 0
12:15 pm 12:15 Cloudy 44 6.7 34 1.1 68 68 Calm 29.65 1004 10 16.09344 0 0
12:35 pm 12:35 Cloudy 44 6.7 34 1.2 68 68 NE 3 6 29.65 1004 10 16.09344 0 0
12:55 pm 12:55 Cloudy 44 6.6 34 1.2 69 69 NNE 3 6 29.62 1003 10 16.09344 0 0
1:15 pm 13:15 Mostly Cloudy 45 7.1 35 1.8 69 69 NE 7 11 29.62 1003 10 16.09344 0 0
1:35 pm 13:35 Partly Cloudy 46 7.5 35 1.9 68 68 ENE 8 13 29.59 1002 10 16.09344 0 0
1:55 pm 13:55 Mostly Cloudy 46 7.6 35 1.9 67 67 ENE 8 13 29.59 1002 10 16.09344 0 0
2:15 pm 14:15 Mostly Cloudy 46 8 35 1.8 65 65 ENE 9 15 29.59 1002 10 16.09344 0 0
2:35 pm 14:35 Mostly Cloudy 46 8 36 2 66 66 E 8 13 29.59 1002 10 16.09344 0 0
2:55 pm 14:55 Mostly Cloudy 46 7.8 35 1.8 66 66 E 10 17 29.59 1002 10 16.09344 0 0
3:15 pm 15:15 Cloudy 46 7.7 36 2 68 68 E 12 19 29.56 1001 10 16.09344 0 0
3:35 pm 15:35 Mostly Cloudy 46 8 36 2.1 67 67 E 16 26 29.56 1001 10 16.09344 0 0
3:55 pm 15:55 Partly Cloudy 46 7.8 36 2 67 67 E 12 19 29.56 1001 10 16.09344 0 0
4:15 pm 16:15 Partly Cloudy 46 7.7 36 2 68 68 E 12 19 29.59 1002 10 16.09344 0 0
4:35 pm 16:35 Mostly Cloudy 46 7.5 36 2 68 68 ENE 14 22 29.59 1002 10 16.09344 0 0
4:55 pm 16:55 Mostly Cloudy 45 7.2 35 1.8 69 69 ENE 10 17 29.59 1002 10 16.09344 0 0
5:15 pm 17:15 Cloudy 44 6.9 35 1.7 70 70 ENE 9 15 29.59 1002 10 16.09344 0 0
5:35 pm 17:35 Cloudy 44 6.5 35 1.6 71 71 NE 10 17 29.59 1002 10 16.09344 0 0
5:55 pm 17:55 Cloudy 43 6.3 35 1.9 74 74 NE 14 22 29.59 1002 10 16.09344 0 0
6:15 pm 18:15 Cloudy 43 6 36 2 76 76 NNE 12 19 29.62 1003 10 16.09344 0 0
6:35 pm 18:35 Cloudy 42 5.8 35 1.8 76 76 NE 15 24 29.62 1003 10 16.09344 0 0
6:55 pm 18:55 Cloudy 42 5.5 35 1.6 76 76 ENE 14 22 29.62 1003 10 16.09344 0 0
7:15 pm 19:15 Cloudy 42 5.5 34 1.3 75 75 NE 13 20 29.68 1005 10 16.09344 0 0
7:35 pm 19:35 Cloudy 42 5.3 34 1.3 76 76 NE 10 17 29.71 1006 10 16.09344 0 0
7:55 pm 19:55 Cloudy 42 5.3 34 1.3 76 76 NE 13 20 29.74 1007 10 16.09344 0 0
8:15 pm 20:15 Cloudy 42 5.3 35 1.5 77 77 NE 14 22 29.74 1007 10 16.09344 0 0
8:35 pm 20:35 Cloudy with Light Rain 41 5.2 35 1.6 78 78 NE 16 26 29.74 1007 10 16.09344 0 0
8:55 pm 20:55 Cloudy with Light Rain 40 4.5 36 2.1 85 85 NE 15 24 29.77 1008 10 16.09344 0 0
9:15 pm 21:15 Cloudy with Light Drizzle 39 4.1 36 2.3 88 88 NE 18 30 29.74 1007 10 16.09344 0 0
9:35 pm 21:35 Cloudy with Light Drizzle 39 4 37 2.5 90 90 NE 21 33 29.74 1007 10 16.09344 0 0
9:55 pm 21:55 Cloudy 39 4 37 2.6 91 91 NE 17 28 29.77 1008 10 16.09344 0 0
10:15 pm 22:15 Cloudy with Light Rain 39 3.7 37 2.5 92 92 NE 20 31 29.77 1008 10 16.09344 0 0
10:35 pm 22:35 Cloudy with Light Rain 38 3.5 37 2.5 93 93 NE 17 28 29.77 1008 10 16.09344 0.02 0.508
10:55 pm 22:55 Cloudy with Rain 37 2.9 36 2.3 96 96 NE 21 33 29.83 1010 10 16.09344 0.06 1.524
11:15 pm 23:15 Cloudy with Light Rain 35 1.6 34 1.2 97 97 NE 21 33 29.83 1010 7 11.265408 0.05 1.27
11:35 pm 23:35 Cloudy with Light Snow 33 0.8 33 0.7 99 99 NNE 16 26 29.83 1010 5 8.04672 0.08 2.032
11:55 pm 23:55 Cloudy with Light Snow 33 0.5 33 0.5 100 100 NNE 17 28 29.83 1010 2 3.218688 0.09 2.286

Powered by AerisWeather